| time (UTC) | temp F | wind direction | speed MPH | gust MPH | rain 1hr in | rain 24hr in | rain mn in | humidity % | barometer mb |
| 20260506201804 | 60 | 6 | 6.0 | 11.0 | 0.00 | 0.01 | 0.01 | 82 | 1011.5 |
| 20260506200925 | 60 | 6 | 6.0 | 11.0 | 0.00 | 0.01 | 0.01 | 83 | 1011.5 |
| 20260506200004 | 59 | 346 | 6.0 | 11.0 | 0.00 | 0.01 | 0.01 | 84 | 1011.8 |
| 20260506195425 | 58 | 343 | 6.0 | 12.0 | 0.00 | 0.01 | 0.01 | 84 | 1011.9 |
| 20260506194504 | 58 | 346 | 6.0 | 12.0 | 0.00 | 0.01 | 0.01 | 84 | 1011.8 |
| 20260506193604 | 57 | 346 | 7.0 | 12.0 | 0.00 | 0.01 | 0.01 | 85 | 1011.8 |
| 20260506192704 | 57 | 351 | 8.0 | 14.0 | 0.00 | 0.01 | 0.01 | 85 | 1011.9 |
| 20260506191804 | 57 | 333 | 6.0 | 12.0 | 0.00 | 0.01 | 0.01 | 85 | 1011.9 |
| 20260506190904 | 57 | 332 | 5.0 | 12.0 | 0.00 | 0.01 | 0.01 | 86 | 1012.0 |
| 20260506190005 | 57 | 336 | 6.0 | 11.0 | 0.00 | 0.01 | 0.01 | 86 | 1012.1 |
| 20260506185404 | 57 | 334 | 6.0 | 12.0 | 0.00 | 0.01 | 0.01 | 86 | 1012.4 |
| 20260506184504 | 56 | 343 | 5.0 | 12.0 | 0.00 | 0.01 | 0.01 | 86 | 1012.3 |
| 20260506183604 | 56 | 349 | 6.0 | 12.0 | 0.00 | 0.01 | 0.01 | 86 | 1012.1 |
| 20260506182725 | 56 | 336 | 5.0 | 12.0 | 0.00 | 0.01 | 0.01 | 86 | 1012.1 |
| 20260506181804 | 57 | 336 | 5.0 | 11.0 | 0.00 | 0.01 | 0.01 | 85 | 1012.2 |
| 20260506180904 | 57 | 355 | 4.0 | 7.0 | 0.00 | 0.01 | 0.01 | 85 | 1012.3 |
| 20260506180025 | 57 | 24 | 6.0 | 11.0 | 0.00 | 0.01 | 0.01 | 85 | 1012.2 |
| 20260506175425 | 57 | 11 | 6.0 | 12.0 | 0.00 | 0.01 | 0.01 | 85 | 1011.8 |
| 20260506174504 | 57 | 356 | 9.0 | 17.0 | 0.00 | 0.01 | 0.01 | 86 | 1011.0 |
| 20260506173625 | 57 | 360 | 10.0 | 19.0 | 0.00 | 0.01 | 0.01 | 86 | 1009.9 |
| 20260506172704 | 57 | 360 | 8.0 | 17.0 | 0.00 | 0.01 | 0.01 | 86 | 1010.1 |
| 20260506171804 | 56 | 3 | 7.0 | 15.0 | 0.00 | 0.01 | 0.01 | 86 | 1010.7 |
| 20260506170904 | 56 | 356 | 7.0 | 12.0 | 0.00 | 0.01 | 0.01 | 86 | 1011.0 |
| 20260506170004 | 57 | 7 | 6.0 | 12.0 | 0.00 | 0.01 | 0.01 | 86 | 1011.1 |
| 20260506165404 | 57 | 1 | 5.0 | 12.0 | 0.00 | 0.01 | 0.01 | 86 | 1011.3 |
| 20260506164504 | 57 | 360 | 4.0 | 9.0 | 0.00 | 0.01 | 0.01 | 86 | 1012.2 |
| 20260506163604 | 56 | 9 | 5.0 | 11.0 | 0.00 | 0.01 | 0.01 | 87 | 1012.1 |
| 20260506162704 | 56 | 10 | 7.0 | 14.0 | 0.00 | 0.01 | 0.01 | 87 | 1011.4 |
| 20260506161804 | 56 | 29 | 9.0 | 16.0 | 0.00 | 0.01 | 0.01 | 87 | 1011.1 |
| 20260506160904 | 56 | 26 | 9.0 | 15.0 | 0.01 | 0.01 | 0.01 | 88 | 1011.0 |
| 20260506160025 | 55 | 17 | 8.0 | 15.0 | 0.01 | 0.01 | 0.01 | 88 | 1011.1 |
| 20260506155404 | 55 | 16 | 7.0 | 12.0 | 0.01 | 0.01 | 0.01 | 88 | 1011.0 |
| 20260506154504 | 54 | 10 | 6.0 | 16.0 | 0.01 | 0.01 | 0.01 | 88 | 1011.2 |
| 20260506153604 | 54 | 359 | 5.0 | 10.0 | 0.01 | 0.01 | 0.01 | 88 | 1011.4 |
| 20260506152704 | 54 | 11 | 5.0 | 9.0 | 0.01 | 0.01 | 0.01 | 87 | 1011.2 |
| 20260506151804 | 54 | 357 | 5.0 | 12.0 | 0.01 | 0.01 | 0.01 | 87 | 1012.1 |
| 20260506150904 | 54 | 8 | 5.0 | 15.0 | 0.00 | 0.00 | 0.00 | 86 | 1012.0 |
| 20260506150004 | 54 | 345 | 6.0 | 15.0 | 0.00 | 0.00 | 0.00 | 85 | 1011.8 |
| 20260506145404 | 54 | 349 | 7.0 | 13.0 | 0.00 | 0.00 | 0.00 | 85 | 1012.2 |
| 20260506144504 | 54 | 333 | 7.0 | 13.0 | 0.00 | 0.00 | 0.00 | 84 | 1012.6 |
| 20260506143625 | 54 | 333 | 8.0 | 15.0 | 0.00 | 0.00 | 0.00 | 83 | 1012.9 |
| 20260506142704 | 55 | 336 | 7.0 | 14.0 | 0.00 | 0.00 | 0.00 | 83 | 1012.5 |
| 20260506141803 | 55 | 339 | 6.0 | 13.0 | 0.00 | 0.00 | 0.00 | 82 | 1011.7 |
| 20260506140904 | 55 | 347 | 8.0 | 15.0 | 0.00 | 0.00 | 0.00 | 81 | 1011.1 |
| 20260506140004 | 55 | 353 | 9.0 | 17.0 | 0.00 | 0.00 | 0.00 | 81 | 1010.7 |
| 20260506135425 | 56 | 353 | 8.0 | 17.0 | 0.00 | 0.00 | 0.00 | 80 | 1010.4 |
| 20260506134504 | 56 | 346 | 7.0 | 13.0 | 0.00 | 0.00 | 0.00 | 80 | 1011.0 |
| 20260506133604 | 56 | 348 | 8.0 | 16.0 | 0.00 | 0.00 | 0.00 | 79 | 1010.9 |
| 20260506132704 | 56 | 346 | 6.0 | 14.0 | 0.00 | 0.00 | 0.00 | 80 | 1010.6 |
| 20260506131804 | 56 | 350 | 8.0 | 15.0 | 0.00 | 0.00 | 0.00 | 80 | 1010.2 |
| 20260506130904 | 56 | 348 | 8.0 | 14.0 | 0.00 | 0.00 | 0.00 | 80 | 1009.9 |
| 20260506130005 | 56 | 359 | 7.0 | 16.0 | 0.00 | 0.00 | 0.00 | 80 | 1009.9 |
| 20260506125404 | 56 | 351 | 7.0 | 16.0 | 0.00 | 0.00 | 0.00 | 80 | 1009.8 |
| 20260506124525 | 57 | 354 | 7.0 | 17.0 | 0.00 | 0.00 | 0.00 | 80 | 1009.8 |
| 20260506123604 | 57 | 358 | 6.0 | 13.0 | 0.00 | 0.00 | 0.00 | 81 | 1009.7 |
| 20260506122725 | 57 | 353 | 6.0 | 12.0 | 0.00 | 0.00 | 0.00 | 81 | 1009.6 |
| 20260506121804 | 57 | 353 | 7.0 | 11.0 | 0.00 | 0.00 | 0.00 | 81 | 1009.4 |
| 20260506120925 | 57 | 349 | 7.0 | 16.0 | 0.00 | 0.00 | 0.00 | 81 | 1009.3 |
| 20260506120004 | 57 | 352 | 6.0 | 14.0 | 0.00 | 0.00 | 0.00 | 80 | 1009.3 |
| 20260506115404 | 57 | 353 | 6.0 | 11.0 | 0.00 | 0.00 | 0.00 | 80 | 1009.2 |
| 20260506114504 | 58 | 349 | 7.0 | 12.0 | 0.00 | 0.00 | 0.00 | 80 | 1009.2 |
| 20260506113604 | 58 | 342 | 6.0 | 12.0 | 0.00 | 0.00 | 0.00 | 80 | 1008.9 |
| 20260506112704 | 58 | 352 | 6.0 | 13.0 | 0.00 | 0.00 | 0.00 | 80 | 1008.8 |
| 20260506111804 | 59 | 346 | 7.0 | 14.0 | 0.00 | 0.00 | 0.00 | 80 | 1008.6 |
| 20260506110925 | 59 | 348 | 7.0 | 16.0 | 0.00 | 0.00 | 0.00 | 80 | 1008.4 |
| 20260506110004 | 59 | 350 | 6.0 | 14.0 | 0.00 | 0.00 | 0.00 | 80 | 1008.2 |
| 20260506105404 | 60 | 354 | 6.0 | 14.0 | 0.00 | 0.00 | 0.00 | 80 | 1008.2 |
| 20260506104504 | 60 | 348 | 6.0 | 10.0 | 0.00 | 0.00 | 0.00 | 80 | 1008.0 |
| 20260506103604 | 60 | 351 | 6.0 | 11.0 | 0.00 | 0.00 | 0.00 | 80 | 1007.9 |
| 20260506102704 | 60 | 356 | 6.0 | 12.0 | 0.00 | 0.00 | 0.00 | 80 | 1007.6 |
| 20260506101804 | 60 | 350 | 6.0 | 12.0 | 0.00 | 0.00 | 0.00 | 80 | 1007.5 |
| 20260506100904 | 61 | 347 | 6.0 | 14.0 | 0.00 | 0.00 | 0.00 | 80 | 1007.4 |
| 20260506100004 | 61 | 350 | 5.0 | 13.0 | 0.00 | 0.00 | 0.00 | 80 | 1007.2 |
| 20260506095404 | 61 | 350 | 5.0 | 10.0 | 0.00 | 0.00 | 0.00 | 80 | 1007.2 |
| 20260506094504 | 61 | 352 | 5.0 | 11.0 | 0.00 | 0.00 | 0.00 | 80 | 1006.9 |
| 20260506093604 | 62 | 349 | 5.0 | 10.0 | 0.00 | 0.00 | 0.00 | 81 | 1006.9 |
| 20260506092704 | 62 | 353 | 5.0 | 10.0 | 0.00 | 0.00 | 0.00 | 81 | 1006.9 |
| 20260506091804 | 62 | 356 | 4.0 | 9.0 | 0.00 | 0.00 | 0.00 | 81 | 1007.0 |
| 20260506090925 | 62 | 354 | 5.0 | 9.0 | 0.00 | 0.00 | 0.00 | 81 | 1007.0 |
| 20260506090004 | 62 | 352 | 5.0 | 9.0 | 0.00 | 0.00 | 0.00 | 81 | 1007.0 |
| 20260506085404 | 62 | 351 | 5.0 | 10.0 | 0.00 | 0.00 | 0.00 | 80 | 1006.9 |
| 20260506084525 | 63 | 354 | 4.0 | 10.0 | 0.00 | 0.00 | 0.00 | 80 | 1006.8 |
| 20260506083604 | 63 | 353 | 4.0 | 10.0 | 0.00 | 0.00 | 0.00 | 80 | 1006.7 |
| 20260506082704 | 63 | 18 | 4.0 | 9.0 | 0.00 | 0.00 | 0.00 | 81 | 1006.6 |
| 20260506081804 | 63 | 26 | 4.0 | 10.0 | 0.00 | 0.00 | 0.00 | 80 | 1006.5 |
| 20260506080903 | 63 | 24 | 4.0 | 8.0 | 0.00 | 0.00 | 0.00 | 80 | 1006.5 |
| 20260506072704 | 64 | 13 | 4.0 | 9.0 | 0.00 | 0.00 | 0.00 | 80 | 1006.4 |
| 20260506071804 | 64 | 7 | 5.0 | 10.0 | 0.00 | 0.00 | 0.00 | 79 | 1006.3 |
| 20260506070903 | 64 | 4 | 5.0 | 11.0 | 0.00 | 0.00 | 0.00 | 79 | 1006.4 |
| 20260506061804 | 65 | 2 | 5.0 | 11.0 | 0.00 | 0.00 | 0.00 | 78 | 1006.3 |
| 20260506060904 | 66 | 1 | 6.0 | 13.0 | 0.00 | 0.00 | 0.00 | 78 | 1006.2 |
| 20260506050905 | 68 | 6 | 5.0 | 11.0 | 0.00 | 0.00 | 0.00 | 76 | 1006.0 |
| 20260506044504 | 69 | 6 | 5.0 | 13.0 | 0.00 | 0.00 | 0.00 | 74 | 1006.0 |
| 20260506043604 | 69 | 7 | 7.0 | 13.0 | 0.00 | 0.00 | 0.00 | 74 | 1006.0 |
| 20260506042704 | 70 | 5 | 6.0 | 11.0 | 0.00 | 0.00 | 0.00 | 73 | 1005.8 |
| 20260506041804 | 70 | 358 | 6.0 | 11.0 | 0.00 | 0.00 | 0.00 | 72 | 1005.9 |
| 20260506040925 | 70 | 359 | 5.0 | 11.0 | 0.00 | 0.00 | 0.00 | 72 | 1005.8 |
| 20260506040004 | 71 | 350 | 7.0 | 14.0 | 0.00 | 0.00 | 0.00 | 71 | 1005.8 |
| 20260506035404 | 72 | 353 | 6.0 | 13.0 | 0.00 | 0.00 | 0.00 | 72 | 1005.7 |
| 20260506034504 | 72 | 360 | 6.0 | 12.0 | 0.00 | 0.00 | 0.00 | 72 | 1005.3 |
| 20260506033604 | 72 | 16 | 5.0 | 12.0 | 0.00 | 0.00 | 0.00 | 72 | 1004.9 |
| 20260506032704 | 73 | 19 | 6.0 | 10.0 | 0.00 | 0.00 | 0.00 | 71 | 1004.8 |
| 20260506031804 | 73 | 27 | 7.0 | 13.0 | 0.00 | 0.00 | 0.00 | 71 | 1004.6 |
| 20260506030904 | 74 | 23 | 6.0 | 12.0 | 0.00 | 0.00 | 0.00 | 70 | 1004.4 |
| 20260506030004 | 75 | 360 | 7.0 | 14.0 | 0.00 | 0.00 | 0.00 | 69 | 1004.6 |
| 20260506025404 | 75 | 2 | 6.0 | 14.0 | 0.00 | 0.00 | 0.00 | 69 | 1004.7 |
| 20260506024504 | 76 | 15 | 6.0 | 13.0 | 0.00 | 0.00 | 0.00 | 69 | 1004.3 |
| 20260506023603 | 77 | 354 | 7.0 | 13.0 | 0.00 | 0.00 | 0.00 | 68 | 1003.9 |
| 20260506022725 | 78 | 352 | 6.0 | 12.0 | 0.00 | 0.00 | 0.00 | 68 | 1003.8 |
| 20260506021804 | 78 | 347 | 4.0 | 11.0 | 0.00 | 0.00 | 0.00 | 67 | 1003.4 |
| 20260506020904 | 79 | 352 | 4.0 | 10.0 | 0.00 | 0.00 | 0.00 | 68 | 1003.2 |
| 20260506020025 | 80 | 355 | 4.0 | 8.0 | 0.00 | 0.00 | 0.00 | 68 | 1002.8 |
| 20260506015404 | 80 | 11 | 2.0 | 8.0 | 0.00 | 0.00 | 0.00 | 68 | 1002.7 |
| 20260506014524 | 81 | 153 | 1.0 | 4.0 | 0.00 | 0.00 | 0.00 | 76 | 1002.5 |
| 20260506013604 | 81 | 184 | 0.0 | 2.0 | 0.00 | 0.00 | 0.00 | 76 | 1002.5 |
| 20260506012703 | 81 | 179 | 1.0 | 5.0 | 0.00 | 0.00 | 0.00 | 76 | 1002.3 |
| 20260506011804 | 81 | 161 | 2.0 | 8.0 | 0.00 | 0.00 | 0.00 | 76 | 1002.2 |
| 20260506010903 | 82 | 170 | 3.0 | 10.0 | 0.00 | 0.00 | 0.00 | 75 | 1002.2 |
| 20260506010004 | 82 | 310 | 2.0 | 7.0 | 0.00 | 0.00 | 0.00 | 75 | 1002.0 |
| 20260506005404 | 82 | 251 | 3.0 | 8.0 | 0.00 | 0.00 | 0.00 | 75 | 1001.7 |
| 20260506004504 | 82 | 181 | 3.0 | 8.0 | 0.00 | 0.00 | 0.00 | 75 | 1001.6 |
| 20260506003604 | 82 | 168 | 6.0 | 12.0 | 0.00 | 0.00 | 0.00 | 74 | 1001.4 |
| 20260506002725 | 83 | 165 | 6.0 | 12.0 | 0.00 | 0.00 | 0.00 | 73 | 1001.2 |
| 20260506001804 | 84 | 170 | 6.0 | 12.0 | 0.00 | 0.00 | 0.00 | 73 | 1001.4 |
| 20260506000924 | 84 | 164 | 6.0 | 14.0 | 0.00 | 0.00 | 0.00 | 72 | 1001.3 |
| 20260506000004 | 84 | 163 | 6.0 | 12.0 | 0.00 | 0.00 | 0.00 | 71 | 1001.0 |
| 20260505235404 | 84 | 163 | 6.0 | 11.0 | 0.00 | 0.00 | 0.00 | 71 | 1001.1 |
| 20260505234504 | 84 | 165 | 6.0 | 12.0 | 0.00 | 0.00 | 0.00 | 71 | 1001.2 |
| 20260505233603 | 85 | 163 | 5.0 | 12.0 | 0.00 | 0.00 | 0.00 | 71 | 1001.3 |
| 20260505232725 | 85 | 160 | 6.0 | 12.0 | 0.00 | 0.00 | 0.00 | 70 | 1001.2 |
| 20260505231804 | 86 | 159 | 7.0 | 14.0 | 0.00 | 0.00 | 0.00 | 70 | 1001.0 |
| 20260505230904 | 86 | 166 | 6.0 | 14.0 | 0.00 | 0.00 | 0.00 | 69 | 1001.0 |
| 20260505230004 | 86 | 163 | 6.0 | 14.0 | 0.00 | 0.00 | 0.00 | 70 | 1000.9 |
| 20260505225404 | 86 | 165 | 6.0 | 14.0 | 0.00 | 0.00 | 0.00 | 69 | 1000.9 |
| 20260505224504 | 87 | 158 | 6.0 | 12.0 | 0.00 | 0.00 | 0.00 | 69 | 1001.0 |
| 20260505223604 | 87 | 156 | 7.0 | 14.0 | 0.00 | 0.00 | 0.00 | 67 | 1000.9 |
| 20260505222704 | 88 | 161 | 7.0 | 14.0 | 0.00 | 0.00 | 0.00 | 66 | 1000.7 |
| 20260505221824 | 90 | 165 | 5.0 | 11.0 | 0.00 | 0.00 | 0.00 | 62 | 1000.6 |
| 20260505220904 | 89 | 166 | 5.0 | 11.0 | 0.00 | 0.00 | 0.00 | 59 | 1000.7 |
| 20260505220004 | 90 | 172 | 5.0 | 11.0 | 0.00 | 0.00 | 0.00 | 57 | 1000.6 |
| 20260505215425 | 90 | 181 | 5.0 | 10.0 | 0.00 | 0.00 | 0.00 | 58 | 1000.8 |
| 20260505214504 | 90 | 171 | 4.0 | 11.0 | 0.00 | 0.00 | 0.00 | 59 | 1000.8 |
| 20260505213624 | 90 | 180 | 5.0 | 12.0 | 0.00 | 0.00 | 0.00 | 59 | 1000.7 |
| 20260505212703 | 90 | 181 | 5.0 | 11.0 | 0.00 | 0.00 | 0.00 | 59 | 1000.7 |
| 20260505211824 | 90 | 172 | 6.0 | 13.0 | 0.00 | 0.00 | 0.00 | 60 | 1000.9 |
| 20260505210903 | 91 | 173 | 5.0 | 13.0 | 0.00 | 0.00 | 0.00 | 60 | 1001.0 |
| 20260505210025 | 90 | 198 | 5.0 | 12.0 | 0.00 | 0.00 | 0.00 | 60 | 1001.3 |
| 20260505205404 | 90 | 184 | 6.0 | 12.0 | 0.00 | 0.00 | 0.00 | 60 | 1001.4 |
| 20260505204504 | 90 | 169 | 5.0 | 12.0 | 0.00 | 0.00 | 0.00 | 60 | 1001.3 |
| 20260505203604 | 90 | 189 | 6.0 | 12.0 | 0.00 | 0.00 | 0.00 | 60 | 1001.4 |
| 20260505202725 | 90 | 193 | 5.0 | 12.0 | 0.00 | 0.00 | 0.00 | 60 | 1001.7 |